AC1IX Weather Reports


time (UTC)temp
C
wind
direction
speed
KPH
gust
KPH
rain 1hr
cm
rain 24hr
cm
rain mn
cm
humidity
%
barometer
mb
20260506222402 12 321 0.0 1.6 0.00 1.40 1.40 99 1006.3
20260506221859 12 293 0.0 0.0 0.13 1.40 1.40 99 1006.2
20260506221356 13 46 3.2 4.8 0.89 1.40 1.40 99 1006.2
20260506220854 13 300 0.0 0.0 1.37 1.37 1.37 99 1005.9
20260506220349 14 301 0.0 0.0 0.61 1.24 1.24 99 1005.9
20260506215846 14 313 1.6 1.6 0.00 1.14 1.14 99 1005.7
20260506215342 15 296 0.0 1.6 0.00 1.14 1.14 99 1005.4
20260506214838 15 292 0.0 0.0 0.00 1.14 1.14 99 1005.4
20260506214335 14 295 0.0 0.0 0.00 1.14 1.14 99 1005.4
20260506213833 15 293 0.0 0.0 0.00 1.14 1.14 99 1005.5
20260506213330 15 294 0.0 0.0 0.00 1.14 1.14 99 1005.2
20260506212827 15 295 0.0 0.0 0.00 1.14 1.14 99 1005.4
20260506212323 15 293 0.0 0.0 0.00 1.14 1.14 99 1005.5
20260506211818 15 293 0.0 0.0 0.00 1.14 1.14 99 1005.4
20260506211315 15 288 0.0 0.0 0.18 1.14 1.14 99 1005.6
20260506210812 15 280 0.0 1.6 0.18 1.14 1.14 99 1005.5
20260506210309 14 294 0.0 0.0 0.00 1.12 1.12 99 1005.5
20260506205806 15 294 0.0 0.0 0.00 1.12 1.12 99 1005.7
20260506205305 15 296 0.0 0.0 0.00 1.12 1.12 99 1005.7
20260506204758 15 294 0.0 0.0 0.00 1.12 1.12 99 1005.7
20260506204256 15 294 0.0 0.0 0.00 1.12 1.12 99 1005.8
20260506203754 15 294 0.0 0.0 0.00 1.12 1.12 99 1006.0
20260506203251 14 290 0.0 0.0 0.00 1.12 1.12 99 1005.8
20260506202748 14 292 0.0 0.0 0.13 1.12 1.12 99 1005.9
20260506202244 14 296 0.0 0.0 0.30 1.12 1.12 99 1006.1
20260506201741 14 296 0.0 0.0 0.30 1.09 1.09 99 1006.1
20260506201238 15 293 0.0 0.0 0.30 1.07 1.07 99 1006.1
20260506200735 15 294 0.0 0.0 0.18 1.04 1.04 99 1006.1
20260506200232 15 296 0.0 0.0 0.00 1.02 1.02 99 1006.4
20260506195728 14 295 0.0 0.0 0.00 1.02 1.02 99 1006.2
20260506195225 14 286 1.6 1.6 0.00 1.02 1.02 99 1006.5
20260506194722 14 289 0.0 0.0 0.13 1.02 1.02 99 1006.4
20260506194218 14 290 0.0 1.6 0.13 1.02 1.02 99 1006.2
20260506193716 15 283 0.0 1.6 0.00 0.99 0.99 99 1006.4
20260506193213 14 291 0.0 0.0 0.00 0.99 0.99 99 1006.2
20260506192709 14 293 0.0 0.0 0.00 0.99 0.99 99 1006.4
20260506192206 14 291 3.2 3.2 0.00 0.99 0.99 99 1006.2
20260506191703 14 296 0.0 1.6 0.00 0.99 0.99 99 1006.1
20260506191159 15 286 0.0 0.0 0.00 0.99 0.99 99 1006.3
20260506190657 14 281 0.0 1.6 0.00 0.99 0.99 99 1006.5
20260506190153 14 327 3.2 4.8 0.00 0.99 0.99 99 1006.5
20260506185650 15 288 0.0 1.6 0.18 0.99 0.99 99 1006.7
20260506185146 15 289 0.0 1.6 0.18 0.99 0.99 99 1006.5
20260506184644 15 283 0.0 1.6 0.18 0.97 0.97 99 1006.7
20260506184141 15 290 0.0 0.0 0.30 0.97 0.97 99 1006.4
20260506183638 15 290 0.0 0.0 0.30 0.94 0.94 99 1006.6
20260506183133 15 298 0.0 0.0 0.18 0.91 0.91 99 1006.6
20260506182631 15 290 0.0 1.6 0.00 0.89 0.89 99 1006.6
20260506182128 15 288 0.0 0.0 0.13 0.89 0.89 99 1006.5
20260506181626 15 281 1.6 1.6 0.13 0.89 0.89 99 1006.7
20260506181123 15 293 1.6 1.6 0.18 0.86 0.86 99 1006.6
20260506180620 14 301 0.0 0.0 0.30 0.86 0.86 99 1006.6
20260506180116 15 293 0.0 1.6 0.30 0.84 0.84 99 1006.5
20260506175612 15 293 1.6 1.6 0.18 0.81 0.81 99 1006.4
20260506175108 14 297 0.0 0.0 0.13 0.79 0.79 99 1006.9
20260506174608 14 296 0.0 1.6 0.30 0.79 0.79 99 1006.7
20260506174103 14 295 0.0 0.0 0.30 0.76 0.76 99 1007.2
20260506173601 14 298 0.0 0.0 0.30 0.74 0.74 99 1007.4
20260506173058 14 295 0.0 0.0 0.48 0.71 0.71 99 1007.2
20260506172555 14 293 0.0 0.0 0.61 0.69 0.69 99 1007.4
20260506172051 15 296 0.0 0.0 0.48 0.64 0.64 99 1007.3
20260506171549 15 291 0.0 0.0 0.30 0.58 0.58 99 1007.4
20260506171047 15 293 0.0 0.0 0.30 0.56 0.56 99 1007.5
20260506170544 15 290 0.0 0.0 0.18 0.53 0.53 99 1007.4
20260506170041 15 295 0.0 0.0 0.13 0.51 0.51 99 1007.5
20260506165540 15 305 3.2 3.2 0.43 0.51 0.51 99 1007.9
20260506165035 15 296 0.0 0.0 0.48 0.48 0.48 99 1008.0
20260506164532 15 296 0.0 1.6 0.30 0.43 0.43 99 1008.0
20260506164030 15 298 0.0 1.6 0.30 0.41 0.41 99 1008.1
20260506163526 15 310 0.0 1.6 0.36 0.38 0.38 99 1008.0
20260506163021 15 295 0.0 0.0 0.30 0.36 0.36 99 1008.2
20260506162518 15 295 0.0 0.0 0.30 0.33 0.33 99 1008.0
20260506162015 15 296 0.0 0.0 0.30 0.30 0.30 99 1008.2
20260506161513 15 281 0.0 0.0 0.30 0.28 0.28 99 1008.5
20260506161010 15 297 0.0 0.0 0.30 0.25 0.25 99 1008.4
20260506160508 15 295 0.0 0.0 0.13 0.23 0.23 99 1008.4
20260506160005 15 289 0.0 1.6 0.18 0.20 0.20 99 1008.4
20260506155503 15 291 0.0 0.0 0.18 0.20 0.20 99 1008.1
20260506153634 15 305 0.0 0.0 0.18 0.15 0.15 99 1008.3
20260506153131 15 294 0.0 0.0 0.13 0.13 0.13 99 1008.3
20260506152628 15 328 1.6 1.6 0.13 0.13 0.13 99 1008.4
20260506152126 15 290 0.0 0.0 0.18 0.10 0.10 99 1008.5
20260506151624 14 290 0.0 0.0 0.18 0.10 0.10 99 1008.6
20260506151121 14 293 0.0 0.0 0.00 0.08 0.08 99 1008.6
20260506150618 14 297 0.0 0.0 0.13 0.08 0.08 98 1008.8
20260506150115 14 297 0.0 0.0 0.13 0.08 0.08 97 1009.0
20260506145612 14 296 0.0 0.0 0.18 0.05 0.05 97 1008.9
20260506145108 15 296 0.0 0.0 0.36 0.05 0.05 95 1009.1
20260506144605 15 300 0.0 0.0 0.18 0.03 0.03 94 1009.2
20260506144102 15 302 0.0 0.0 0.00 0.00 0.00 91 1009.2
20260506143600 16 306 0.0 0.0 0.00 0.00 0.00 89 1009.1
20260506143058 16 295 0.0 0.0 0.00 0.00 0.00 88 1009.1
20260506142556 16 295 0.0 0.0 0.00 0.00 0.00 86 1009.2
20260506142054 16 290 0.0 0.0 0.00 0.00 0.00 85 1009.0
20260506141551 17 261 0.0 1.6 0.00 0.00 0.00 85 1009.1
20260506141049 17 281 0.0 1.6 0.00 0.00 0.00 84 1008.9
20260506140547 17 266 1.6 1.6 0.00 0.00 0.00 83 1008.9
20260506140044 17 288 1.6 1.6 0.00 0.00 0.00 83 1008.7
20260506135541 17 288 1.6 1.6 0.00 0.00 0.00 83 1008.7
20260506135037 17 278 3.2 3.2 0.00 0.00 0.00 82 1008.7
20260506134533 17 273 0.0 0.0 0.00 0.00 0.00 84 1008.7
20260506134029 17 281 1.6 3.2 0.00 0.00 0.00 82 1008.6
20260506133527 17 293 1.6 1.6 0.00 0.00 0.00 82 1008.3
20260506133023 17 291 1.6 1.6 0.00 0.00 0.00 81 1008.2
20260506132521 17 275 1.6 3.2 0.00 0.00 0.00 82 1008.4
20260506132018 17 294 0.0 0.0 0.00 0.00 0.00 83 1008.4
20260506131515 17 294 0.0 0.0 0.00 0.00 0.00 85 1008.5
20260506131011 16 311 1.6 1.6 0.00 0.00 0.00 84 1008.4
20260506130508 16 301 0.0 1.6 0.00 0.00 0.00 85 1008.5
20260506130006 16 291 1.6 1.6 0.00 0.00 0.00 85 1008.8
20260506125504 16 299 0.0 1.6 0.00 0.00 0.00 87 1008.6
20260506125001 16 298 1.6 1.6 0.00 0.00 0.00 85 1009.0
20260506124459 16 293 0.0 0.0 0.00 0.00 0.00 85 1009.2
20260506123957 16 296 1.6 3.2 0.00 0.00 0.00 84 1009.2
20260506123454 16 279 0.0 1.6 0.00 0.00 0.00 84 1009.3
20260506122952 16 292 1.6 1.6 0.00 0.00 0.00 84 1009.2
20260506122449 16 295 0.0 1.6 0.00 0.00 0.00 85 1009.1
20260506121947 16 287 1.6 1.6 0.00 0.00 0.00 84 1009.3
20260506121444 16 292 1.6 3.2 0.00 0.00 0.00 85 1009.2
20260506120940 16 290 1.6 1.6 0.00 0.00 0.00 83 1009.1
20260506120438 16 297 0.0 1.6 0.00 0.00 0.00 84 1009.0
20260506115935 15 282 1.6 3.2 0.00 0.00 0.00 86 1009.1
20260506115433 16 262 0.0 0.0 0.00 0.00 0.00 86 1009.1
20260506114931 16 295 0.0 0.0 0.00 0.00 0.00 85 1008.9
20260506114428 15 289 1.6 3.2 0.00 0.00 0.00 85 1008.9
20260506113927 15 294 0.0 0.0 0.00 0.00 0.00 87 1008.6
20260506113424 15 291 0.0 0.0 0.00 0.00 0.00 88 1008.4
20260506112920 15 293 1.6 1.6 0.00 0.00 0.00 89 1008.3
20260506112419 15 303 0.0 0.0 0.00 0.00 0.00 91 1008.6
20260506111916 15 297 0.0 0.0 0.00 0.00 0.00 90 1008.8
20260506111414 15 291 0.0 0.0 0.00 0.00 0.00 90 1008.8
20260506110910 15 294 0.0 0.0 0.00 0.00 0.00 90 1008.8
20260506110408 13 264 0.0 1.6 0.00 0.00 0.00 91 1008.8
20260506105904 12 279 1.6 1.6 0.00 0.00 0.00 99 1008.8
20260506105401 12 294 0.0 0.0 0.00 0.00 0.00 99 1008.5
20260506104858 12 289 0.0 0.0 0.00 0.00 0.00 99 1008.4
20260506104356 12 298 0.0 0.0 0.00 0.00 0.00 99 1008.4
20260506103853 11 294 0.0 0.0 0.00 0.00 0.00 99 1008.5
20260506103351 11 294 0.0 0.0 0.00 0.00 0.00 99 1008.5
20260506102848 11 292 0.0 0.0 0.00 0.00 0.00 99 1008.3
20260506102346 10 300 0.0 0.0 0.00 0.00 0.00 99 1008.4
20260506101843 10 294 0.0 0.0 0.00 0.00 0.00 99 1008.5
20260506101339 10 295 0.0 0.0 0.00 0.00 0.00 99 1008.4
20260506100837 9 291 0.0 0.0 0.00 0.00 0.00 99 1008.6
20260506100335 9 287 0.0 0.0 0.00 0.00 0.00 99 1008.4
20260506095833 9 295 0.0 0.0 0.00 0.00 0.00 99 1008.5
20260506095330 9 295 0.0 0.0 0.00 0.00 0.00 99 1008.2
20260506094827 9 291 0.0 0.0 0.00 0.00 0.00 99 1008.6
20260506094326 9 295 0.0 0.0 0.00 0.00 0.00 99 1008.3
20260506093823 9 293 0.0 0.0 0.00 0.00 0.00 99 1008.4
20260506093320 9 295 0.0 0.0 0.00 0.00 0.00 99 1008.5
20260506092818 9 295 0.0 0.0 0.00 0.00 0.00 99 1008.5
20260506092315 9 293 0.0 0.0 0.00 0.00 0.00 99 1008.8
20260506091812 9 290 0.0 0.0 0.00 0.00 0.00 99 1008.5
20260506091310 9 255 0.0 1.6 0.00 0.00 0.00 99 1008.8
20260506090808 9 295 0.0 0.0 0.00 0.00 0.00 99 1008.8
20260506090304 9 293 0.0 0.0 0.00 0.00 0.00 99 1008.9
20260506085801 9 292 0.0 0.0 0.00 0.00 0.00 99 1008.9
20260506085257 10 292 0.0 0.0 0.00 0.00 0.00 99 1008.9
20260506084754 10 285 0.0 0.0 0.00 0.00 0.00 99 1008.9
20260506084250 10 294 0.0 0.0 0.00 0.00 0.00 99 1008.7
20260506083747 10 292 0.0 0.0 0.00 0.00 0.00 99 1008.9
20260506083245 10 294 0.0 0.0 0.00 0.00 0.00 99 1008.9
20260506082742 10 294 0.0 0.0 0.00 0.00 0.00 99 1008.8
20260506082237 10 294 0.0 0.0 0.00 0.00 0.00 99 1008.9
20260506081736 10 294 0.0 0.0 0.00 0.00 0.00 99 1009.0
20260506081233 10 292 1.6 1.6 0.00 0.00 0.00 99 1009.4
20260506080731 10 294 0.0 0.0 0.00 0.00 0.00 99 1009.1
20260506080227 10 290 0.0 0.0 0.00 0.00 0.00 99 1009.5
20260506073211 10 295 0.0 0.0 0.00 0.00 0.00 99 1009.4
20260506072708 11 296 0.0 0.0 0.00 0.00 0.00 99 1009.7
20260506072206 11 294 0.0 0.0 0.00 0.00 0.00 99 1009.5
20260506071703 11 294 0.0 0.0 0.00 0.00 0.00 99 1009.6
20260506071201 11 294 0.0 0.0 0.00 0.00 0.00 99 1009.8
20260506070657 11 294 0.0 0.0 0.00 0.00 0.00 99 1009.8
20260506070154 11 295 0.0 0.0 0.00 0.00 0.00 99 1009.5
20260506062131 12 293 0.0 0.0 0.00 0.00 0.00 99 1009.7
20260506061627 12 292 0.0 0.0 0.00 0.00 0.00 99 1009.9
20260506061125 12 297 0.0 0.0 0.00 0.00 0.00 99 1009.7
20260506060623 12 295 0.0 0.0 0.00 0.00 0.00 99 1009.6
20260506060120 12 292 0.0 0.0 0.00 0.00 0.00 99 1009.7
20260506051052 13 291 0.0 0.0 0.00 0.00 0.00 99 1010.2
20260506050550 13 293 0.0 0.0 0.00 0.00 0.00 99 1010.4
20260506045040 13 297 0.0 0.0 0.00 0.00 0.00 99 1010.5
20260506044538 13 297 0.0 0.0 0.00 0.00 0.00 99 1010.5
20260506044035 13 295 0.0 0.0 0.00 0.00 0.00 99 1010.4
20260506043532 13 293 0.0 0.0 0.00 0.00 0.00 99 1010.5
20260506043030 13 295 0.0 0.0 0.00 0.00 0.00 99 1010.2
20260506042529 13 297 0.0 0.0 0.00 0.00 0.00 99 1010.2
20260506042027 13 286 0.0 1.6 0.00 0.00 0.00 99 1010.3
20260506041525 13 293 0.0 0.0 0.00 0.00 0.00 99 1009.9
20260506041021 13 288 0.0 0.0 0.00 0.00 0.00 99 1010.1
20260506040519 13 294 0.0 0.0 0.00 0.00 0.00 99 1010.0
20260506040015 13 291 0.0 0.0 0.00 0.13 0.13 99 1009.8
20260506035512 13 294 0.0 0.0 0.00 0.13 0.13 99 1010.1
20260506035009 13 294 1.6 1.6 0.00 0.13 0.13 99 1009.8
20260506034507 14 292 0.0 0.0 0.00 0.13 0.13 99 1009.9
20260506034003 14 296 0.0 0.0 0.00 0.13 0.13 99 1010.3
20260506033501 14 265 1.6 1.6 0.00 0.13 0.13 99 1010.2
20260506032957 14 292 0.0 0.0 0.00 0.13 0.13 99 1010.3
20260506032455 14 291 0.0 0.0 0.00 0.13 0.13 99 1009.6
20260506031951 14 292 0.0 0.0 0.00 0.13 0.13 99 1009.9
20260506031448 14 294 0.0 0.0 0.00 0.13 0.13 99 1009.8
20260506030946 14 293 0.0 0.0 0.00 0.13 0.13 99 1010.1
20260506030444 14 297 0.0 0.0 0.00 0.13 0.13 99 1009.8
20260506025940 14 288 0.0 0.0 0.00 0.13 0.13 99 1009.9
20260506025437 14 291 0.0 0.0 0.13 0.13 0.13 99 1010.0
20260506024934 14 298 0.0 0.0 0.13 0.13 0.13 99 1010.1
20260506024431 14 293 0.0 0.0 0.00 0.10 0.10 99 1010.1
20260506023926 14 293 0.0 0.0 0.00 0.10 0.10 99 1010.1
20260506023424 15 290 0.0 0.0 0.00 0.10 0.10 99 1009.9
20260506022920 15 293 0.0 0.0 0.00 0.10 0.10 99 1009.9
20260506022418 15 294 0.0 0.0 0.00 0.10 0.10 99 1009.5
20260506021916 14 293 0.0 0.0 0.00 0.10 0.10 99 1009.6
20260506021413 15 289 0.0 0.0 0.00 0.10 0.10 99 1009.7
20260506020910 15 293 0.0 0.0 0.00 0.10 0.10 99 1009.8
20260506020408 15 289 0.0 0.0 0.00 0.10 0.10 98 1010.0
20260506015904 15 291 0.0 0.0 0.00 0.10 0.10 98 1009.7
20260506015402 15 291 0.0 0.0 0.00 0.10 0.10 98 1009.8
20260506014859 15 289 0.0 0.0 0.00 0.10 0.10 98 1009.8
20260506014355 15 291 0.0 0.0 0.00 0.10 0.10 98 1009.8
20260506013852 15 293 0.0 0.0 0.00 0.10 0.10 97 1009.7
20260506013350 15 293 0.0 0.0 0.00 0.10 0.10 97 1009.7
20260506012846 15 293 0.0 0.0 0.00 0.10 0.10 97 1009.5
20260506012343 15 287 0.0 0.0 0.00 0.10 0.10 97 1009.6
20260506011840 15 292 0.0 0.0 0.00 0.10 0.10 96 1009.5
20260506011337 15 290 0.0 0.0 0.00 0.10 0.10 96 1009.5
20260506010834 15 245 3.2 3.2 0.00 0.10 0.10 96 1009.6
20260506010332 15 288 0.0 1.6 0.00 0.10 0.10 95 1009.6
20260506005829 15 295 0.0 0.0 0.00 0.10 0.10 95 1009.2
20260506005326 15 292 0.0 0.0 0.00 0.10 0.10 95 1009.1
20260506004822 15 293 0.0 0.0 0.00 0.10 0.10 94 1009.1
20260506004319 15 294 0.0 0.0 0.00 0.10 0.10 94 1009.2
20260506003815 15 292 0.0 0.0 0.00 0.10 0.10 93 1009.2
20260506003312 15 294 0.0 0.0 0.00 0.10 0.10 92 1008.7
20260506002808 15 292 0.0 0.0 0.00 0.10 0.10 93 1008.7
20260506002306 15 292 0.0 0.0 0.00 0.10 0.10 93 1008.7
20260506001800 15 292 0.0 0.0 0.00 0.10 0.10 92 1008.4
20260506001258 15 292 0.0 0.0 0.00 0.10 0.10 92 1008.2
20260506000755 15 292 0.0 0.0 0.00 0.10 0.10 92 1008.5
20260506000254 15 296 0.0 1.6 0.00 0.10 0.10 93 1008.6
20260505235749 15 292 0.0 0.0 0.00 0.10 0.10 93 1008.3
20260505235247 16 287 0.0 0.0 0.00 0.10 0.10 92 1008.5
20260505234743 16 293 0.0 0.0 0.00 0.10 0.10 92 1008.6
20260505234241 16 292 0.0 0.0 0.00 0.10 0.10 93 1008.6
20260505233737 16 292 0.0 0.0 0.00 0.10 0.10 93 1008.5
20260505233236 16 280 0.0 0.0 0.00 0.10 0.10 93 1008.9
20260505232732 16 292 0.0 0.0 0.00 0.10 0.10 93 1008.6
20260505232230 16 285 0.0 0.0 0.00 0.10 0.10 93 1008.5
20260505231726 16 291 0.0 0.0 0.00 0.10 0.10 93 1008.6
20260505231225 16 290 0.0 0.0 0.00 0.10 0.10 92 1008.6
20260505230723 16 282 0.0 0.0 0.00 0.10 0.10 92 1008.6
20260505230219 16 287 0.0 0.0 0.00 0.10 0.10 92 1008.8
20260505225716 16 292 0.0 0.0 0.00 0.10 0.10 93 1008.9
20260505225213 16 292 0.0 0.0 0.00 0.10 0.10 92 1009.1
20260505224708 16 289 0.0 0.0 0.00 0.10 0.10 92 1009.0
20260505224206 16 292 0.0 0.0 0.00 0.10 0.10 94 1008.8
20260505223704 16 240 1.6 3.2 0.00 0.10 0.10 93 1008.9
20260505223159 16 292 0.0 0.0 0.00 0.10 0.10 92 1008.9
20260505222656 16 293 1.6 1.6 0.00 0.10 0.10 91 1008.8